Вернуться в каталог

Suomi 100

SUOMI100

АктивенЛюбительское радиоSSO
NORAD 43804·PAYLOAD·🇫🇮 Finland

Запущен Dec 3, 2018 с Vandenberg Space Force Base

Loading…

Ближайшие Пролёты (ближайшие 24 часа)

TLE

СвежийSource: Space-Track

Эпоха: Sep 14, 2026, 21:47 UTC

1 43804U 18099AY  26257.90806787  .00011798  00000-0  40468-3 0  9994
2 43804  97.4088 318.0438 0008409 329.8826  30.1930 15.30288745427139

Отслеживайте Suomi 100 в реальном времени с AllMySat

Download on the App Store